When you browse on this site, cookies collect data to enhance your experience and personalize the content and advertising you see.
Visit our Privacy Policy to learn more. By continuing to use the site, you agree to this use of cookies and data.
EN

Hourly Weather Gorodok

Today, 12 August, Wednesday

Time Temperature Precipitation Wind Pressure Humidity
00:00 +17°C° 0 mm 2 mps 739 mmHg 91%
01:00 +17°C° 0 mm 2 mps 739 mmHg 92%
02:00 +16°C° 0 mm 1 mps 739 mmHg 93%
03:00 +16°C° 0 mm 1 mps 740 mmHg 93%
04:00 +16°C° 0 mm 1 mps 740 mmHg 94%
05:00 +15°C° 0 mm 1 mps 740 mmHg 95%
06:00 +16°C° 0 mm 1 mps 740 mmHg 92%
07:00 +18°C° 0 mm 1 mps 740 mmHg 89%
08:00 +19°C° 0 mm 2 mps 740 mmHg 86%
09:00 +20°C° 0 mm 2 mps 740 mmHg 79%
10:00 +21°C° 0 mm 3 mps 741 mmHg 72%
11:00 +22°C° 0 mm 3 mps 741 mmHg 65%
12:00 +24°C° 0 mm 3 mps 741 mmHg 62%
13:00 +24°C° 0 mm 3 mps 741 mmHg 60%
14:00 +24°C° 0 mm 3 mps 741 mmHg 56%
15:00 +24°C° 0 mm 3 mps 741 mmHg 59%
16:00 +24°C° 0 mm 3 mps 740 mmHg 61%
17:00 +22°C° 0 mm 3 mps 740 mmHg 64%
18:00 +20°C° 0 mm 3 mps 740 mmHg 70%
19:00 +19°C° 0 mm 2 mps 741 mmHg 76%
20:00 +17°C° 0 mm 2 mps 741 mmHg 82%
21:00 +16°C° 0 mm 2 mps 741 mmHg 83%
22:00 +15°C° 0 mm 2 mps 741 mmHg 85%
23:00 +15°C° 0 mm 1 mps 741 mmHg 86%

Tomorrow, 13 August, Thursday

Time Temperature Precipitation Wind Pressure Humidity
00:00 +14°C° 0 mm 1 mps 741 mmHg 87%
01:00 +14°C° 0 mm 1 mps 741 mmHg 88%
02:00 +13°C° 0 mm 1 mps 741 mmHg 89%
03:00 +13°C° 0 mm 1 mps 741 mmHg 89%
04:00 +13°C° 0 mm 1 mps 740 mmHg 90%
05:00 +12°C° 0 mm 0 mps 740 mmHg 90%
06:00 +14°C° 0 mm 1 mps 740 mmHg 86%
07:00 +16°C° 0 mm 1 mps 740 mmHg 81%
08:00 +18°C° 0 mm 1 mps 740 mmHg 76%
09:00 +20°C° 0 mm 1 mps 740 mmHg 71%
10:00 +21°C° 0 mm 1 mps 740 mmHg 66%
11:00 +21°C° 0 mm 2 mps 740 mmHg 60%
12:00 +23°C° 0 mm 2 mps 740 mmHg 58%
13:00 +24°C° 0 mm 1 mps 740 mmHg 56%
14:00 +24°C° 0 mm 1 mps 739 mmHg 54%
15:00 +24°C° 0 mm 1 mps 739 mmHg 55%
16:00 +24°C° 0 mm 1 mps 739 mmHg 57%
17:00 +24°C° 0 mm 1 mps 739 mmHg 58%
18:00 +21°C° 0 mm 2 mps 739 mmHg 64%
19:00 +19°C° 0 mm 2 mps 739 mmHg 71%
20:00 +18°C° 0 mm 2 mps 739 mmHg 77%
21:00 +17°C° 0 mm 2 mps 739 mmHg 79%
22:00 +16°C° 0 mm 2 mps 739 mmHg 81%
23:00 +15°C° 0 mm 2 mps 739 mmHg 83%

Day after tomorrow, 14 August, Friday

Time Temperature Precipitation Wind Pressure Humidity
00:00 +15°C° 0 mm 2 mps 739 mmHg 85%
01:00 +15°C° 0 mm 2 mps 739 mmHg 86%
02:00 +14°C° 0 mm 2 mps 739 mmHg 88%
03:00 +14°C° 0 mm 2 mps 738 mmHg 89%
04:00 +13°C° 0 mm 2 mps 738 mmHg 90%
05:00 +13°C° 0 mm 2 mps 738 mmHg 91%
06:00 +15°C° 0 mm 2 mps 738 mmHg 87%
07:00 +16°C° 0 mm 2 mps 738 mmHg 83%
08:00 +17°C° 0 mm 2 mps 738 mmHg 78%
09:00 +19°C° 0 mm 3 mps 738 mmHg 73%
10:00 +21°C° 0 mm 3 mps 739 mmHg 68%
11:00 +22°C° 0 mm 3 mps 739 mmHg 63%
12:00 +24°C° 0 mm 3 mps 738 mmHg 62%
13:00 +23°C° 0 mm 4 mps 738 mmHg 61%
14:00 +23°C° 0 mm 4 mps 738 mmHg 60%
15:00 +23°C° 0 mm 4 mps 738 mmHg 61%
16:00 +23°C° 0 mm 4 mps 738 mmHg 63%
17:00 +23°C° 0 mm 4 mps 738 mmHg 64%
18:00 +21°C° 0 mm 4 mps 738 mmHg 70%
19:00 +19°C° 0 mm 4 mps 738 mmHg 76%
20:00 +18°C° 0 mm 3 mps 738 mmHg 82%
21:00 +17°C° 0 mm 3 mps 738 mmHg 83%
22:00 +16°C° 0 mm 3 mps 738 mmHg 84%
23:00 +14°C° 0 mm 3 mps 738 mmHg 85%

15 August, Saturday

Time Temperature Precipitation Wind Pressure Humidity
00:00 +14°C° 0 mm 3 mps 738 mmHg 83%
01:00 +14°C° 0 mm 4 mps 738 mmHg 81%
02:00 +14°C° 0 mm 4 mps 738 mmHg 79%
03:00 +14°C° 0 mm 4 mps 738 mmHg 78%
04:00 +13°C° 0 mm 3 mps 737 mmHg 77%
05:00 +13°C° 0 mm 3 mps 737 mmHg 76%
06:00 +14°C° 0 mm 4 mps 737 mmHg 75%
07:00 +15°C° 0 mm 4 mps 738 mmHg 73%
08:00 +16°C° 0 mm 5 mps 738 mmHg 72%
09:00 +17°C° 0 mm 5 mps 738 mmHg 70%
10:00 +19°C° 0 mm 5 mps 738 mmHg 67%
11:00 +20°C° 0 mm 5 mps 738 mmHg 64%
12:00 +21°C° 0 mm 6 mps 738 mmHg 63%
13:00 +22°C° 0 mm 6 mps 738 mmHg 63%
14:00 +22°C° 0 mm 6 mps 738 mmHg 62%
15:00 +22°C° 0 mm 6 mps 738 mmHg 63%
16:00 +22°C° 0 mm 5 mps 738 mmHg 65%
17:00 +22°C° 0 mm 5 mps 738 mmHg 66%
18:00 +21°C° 0 mm 5 mps 738 mmHg 70%
19:00 +19°C° 0 mm 5 mps 738 mmHg 74%
20:00 +18°C° 0 mm 4 mps 738 mmHg 77%
21:00 +18°C° 0 mm 4 mps 738 mmHg 76%
22:00 +17°C° 0 mm 4 mps 738 mmHg 75%
23:00 +17°C° 0 mm 4 mps 738 mmHg 74%

16 August, Sunday

Time Temperature Precipitation Wind Pressure Humidity
00:00 +15°C° 0 mm 4 mps 738 mmHg 74%
01:00 +15°C° 0 mm 4 mps 738 mmHg 73%
02:00 +15°C° 0 mm 4 mps 738 mmHg 73%
03:00 +14°C° 0 mm 4 mps 738 mmHg 74%
04:00 +13°C° 0 mm 4 mps 738 mmHg 76%
05:00 +13°C° 0 mm 4 mps 738 mmHg 78%
06:00 +14°C° 0 mm 4 mps 739 mmHg 76%
07:00 +15°C° 0 mm 4 mps 739 mmHg 74%
08:00 +17°C° 0 mm 4 mps 739 mmHg 72%
09:00 +19°C° 0 mm 5 mps 739 mmHg 69%
10:00 +20°C° 0 mm 5 mps 739 mmHg 65%
11:00 +22°C° 0 mm 5 mps 740 mmHg 62%
12:00 +23°C° 0 mm 5 mps 740 mmHg 60%
13:00 +23°C° 0 mm 5 mps 739 mmHg 58%
14:00 +25°C° 0 mm 5 mps 739 mmHg 56%
15:00 +25°C° 0 mm 5 mps 739 mmHg 58%
16:00 +23°C° 0 mm 5 mps 739 mmHg 60%
17:00 +23°C° 0 mm 5 mps 739 mmHg 62%
18:00 +21°C° 0 mm 4 mps 739 mmHg 67%
19:00 +20°C° 0 mm 4 mps 739 mmHg 72%
20:00 +18°C° 0 mm 3 mps 739 mmHg 77%
21:00 +17°C° 0 mm 3 mps 739 mmHg 77%
22:00 +16°C° 0 mm 3 mps 739 mmHg 76%
23:00 +16°C° 0 mm 3 mps 739 mmHg 76%

17 August, Monday

Time Temperature Precipitation Wind Pressure Humidity
00:00 +14°C° 0 mm 3 mps 739 mmHg 76%
01:00 +14°C° 0 mm 3 mps 739 mmHg 77%
02:00 +13°C° 0 mm 3 mps 739 mmHg 77%
03:00 +13°C° 0 mm 3 mps 739 mmHg 78%
04:00 +12°C° 0 mm 3 mps 738 mmHg 79%
05:00 +13°C° 0 mm 2 mps 738 mmHg 80%
06:00 +13°C° 0 mm 3 mps 738 mmHg 77%
07:00 +16°C° 0 mm 3 mps 738 mmHg 74%
08:00 +17°C° 0 mm 3 mps 738 mmHg 71%
09:00 +19°C° 0 mm 3 mps 738 mmHg 68%
10:00 +21°C° 0 mm 3 mps 738 mmHg 65%
11:00 +22°C° 0 mm 3 mps 738 mmHg 61%
12:00 +24°C° 0 mm 3 mps 738 mmHg 60%
13:00 +25°C° 0 mm 3 mps 738 mmHg 58%
14:00 +26°C° 0 mm 3 mps 737 mmHg 57%
15:00 +26°C° 0.1 mm 3 mps 737 mmHg 59%
16:00 +26°C° 0.1 mm 3 mps 736 mmHg 61%
17:00 +26°C° 0.1 mm 2 mps 736 mmHg 63%
18:00 +24°C° 0 mm 2 mps 736 mmHg 70%
19:00 +22°C° 0 mm 1 mps 736 mmHg 76%
20:00 +20°C° 0 mm 1 mps 735 mmHg 83%
21:00 +20°C° 0 mm 1 mps 735 mmHg 84%
22:00 +19°C° 0 mm 1 mps 735 mmHg 85%
23:00 +18°C° 0 mm 1 mps 735 mmHg 86%
Show more